TimeMST,TemperatureF,Dew PointF,Humidity,Sea Level PressureIn,VisibilityMPH,Wind Direction,Wind SpeedMPH,Gust SpeedMPH,PrecipitationIn,Events,Conditions,WindDirDegrees,DateUTC
12:53 AM,16.0,14.0,92,30.28,8.0,WSW,12.7,-,N/A,,Overcast,240,2012-12-31 07:53:00
1:37 AM,15.8,12.2,86,30.14,8.0,WSW,13.8,-,N/A,,Overcast,240,2012-12-31 08:37:00
1:53 AM,16.0,12.9,88,30.28,6.0,SW,10.4,-,N/A,,Overcast,220,2012-12-31 08:53:00
2:42 AM,17.6,14.0,86,30.14,6.0,SW,12.7,-,0.00,Snow,Light Snow,230,2012-12-31 09:42:00
2:53 AM,17.1,14.0,88,30.29,6.0,SW,12.7,-,0.00,Snow,Light Snow,220,2012-12-31 09:53:00
3:05 AM,17.6,12.2,79,30.14,5.0,SW,13.8,-,0.00,Snow,Light Snow,230,2012-12-31 10:05:00
3:53 AM,16.0,12.9,88,30.29,10.0,SW,8.1,-,0.00,,Overcast,220,2012-12-31 10:53:00
4:15 AM,15.8,12.2,86,30.12,10.0,SSW,5.8,-,N/A,,Overcast,210,2012-12-31 11:15:00
4:53 AM,16.0,12.9,88,30.30,10.0,SSW,5.8,-,N/A,,Overcast,210,2012-12-31 11:53:00
5:53 AM,17.1,14.0,88,30.29,9.0,SW,5.8,-,0.00,Snow,Light Snow,230,2012-12-31 12:53:00
6:53 AM,17.1,14.0,88,30.31,6.0,West,9.2,-,0.00,Snow,Light Snow,270,2012-12-31 13:53:00
7:53 AM,17.1,15.1,92,30.32,6.0,West,9.2,-,0.00,Snow,Light Snow,260,2012-12-31 14:53:00
8:07 AM,17.6,15.8,93,30.15,1.5,West,10.4,-,0.00,Snow,Light Snow,260,2012-12-31 15:07:00
8:08 AM,17.6,15.8,93,30.15,0.8,West,10.4,-,0.00,Snow,Light Snow,270,2012-12-31 15:08:00
8:53 AM,17.1,15.1,92,30.32,0.5,West,12.7,-,0.03,Fog-Snow,Snow,260,2012-12-31 15:53:00
9:53 AM,17.1,14.0,88,30.35,0.8,West,13.8,-,0.03,Snow,Light Snow,260,2012-12-31 16:53:00
10:53 AM,18.0,14.0,84,30.36,2.5,West,9.2,-,0.01,Snow,Light Snow,260,2012-12-31 17:53:00
11:53 AM,18.0,15.1,88,30.35,3.0,West,8.1,-,0.00,Snow,Light Snow,270,2012-12-31 18:53:00
12:06 PM,17.6,14.0,86,30.18,1.5,West,8.1,-,0.00,Snow,Light Snow,260,2012-12-31 19:06:00
12:45 PM,17.6,12.2,79,30.18,4.0,West,11.5,-,0.00,Snow,Light Snow,260,2012-12-31 19:45:00
12:53 PM,18.0,12.9,81,30.34,4.0,West,10.4,-,0.00,Snow,Light Snow,260,2012-12-31 19:53:00
1:53 PM,18.0,12.0,78,30.34,8.0,West,11.5,-,0.00,Snow,Light Snow,260,2012-12-31 20:53:00
2:53 PM,17.1,12.0,81,30.35,6.0,West,11.5,-,0.00,Snow,Light Snow,270,2012-12-31 21:53:00
3:53 PM,17.1,12.9,84,30.37,4.0,WSW,4.6,-,0.00,Snow,Light Snow,250,2012-12-31 22:53:00
4:53 PM,16.0,12.0,84,30.39,3.0,West,3.5,-,0.00,Snow,Light Snow,260,2012-12-31 23:53:00
5:53 PM,15.1,10.9,84,30.39,7.0,SSW,3.5,-,0.00,,Overcast,200,2013-01-01 00:53:00
6:53 PM,14.0,10.0,84,30.40,8.0,SW,4.6,-,0.00,Snow,Light Snow,220,2013-01-01 01:53:00
7:53 PM,14.0,8.6,79,30.24,9.0,SSW,4.6,-,N/A,Snow,Light Snow,210,2013-01-01 02:53:00
8:53 PM,15.1,10.0,80,30.41,10.0,SW,5.8,-,0.00,Snow,Light Snow,220,2013-01-01 03:53:00
9:53 PM,10.4,6.8,85,30.26,8.0,Calm,Calm,-,N/A,Snow,Light Snow,0,2013-01-01 04:53:00
10:53 PM,10.0,6.1,84,30.46,10.0,Calm,Calm,-,0.00,,Overcast,0,2013-01-01 05:53:00
11:53 PM,10.9,7.0,84,30.47,10.0,Calm,Calm,-,N/A,,Overcast,0,2013-01-01 06:53:00